BEIDOU-3 IGSO-1

Last updated on Tue Sep 16 2025 00:02:49 GMT+0000 (Coordinated Universal Time)

1 44204U 19023A 25258.30669696 -.00000206 00000+0 00000+0 0 9993 2 44204 58.3117 40.4890 0025168 216.1491 327.2124 1.00270373 4459
UTC large
Height (km)
Speed (km/s)
/
Latitude / Longitude
Inclination (degrees)
Orbital Period (minutes)
Azimuth
Elevation
Range (km)
Doppler Factor

Next 0 passes for location: London (51.5072 / 0.1276)

Sorry there are no passes over London.